Regional Weather Roundup
Issued by NWS Albany, NY

Home | Current Version | Previous Version | Text Only | Print | Product List | Glossary On
Versions: 1 2 3 4 5 6 7 8 9 10 11 12 13 14 15 16 17 18 19 20 21 22 23 24 25 26 27
000
ASUS41 KALY 022110
RWRALY

NEW YORK STATE HOURLY WEATHER ROUNDUP
NATIONAL WEATHER SERVICE ALBANY NY
500 PM EDT MON MAY 02 2016

NOTE: "FAIR" INDICATES FEW OR NO CLOUDS BELOW 12,000 FEET WITH NO
SIGNIFICANT WEATHER AND/OR NO OBSTRUCTIONS TO VISIBILITY.

NYZ032-033-038>043-046>054-057>066-NYZ062>081-082-084-022200-
EAST


CITY           SKY/WX    TMP DP  RH WIND       PRES   REMARKS
ALBANY         CLOUDY    51  48  89 VRB3      29.89F
GLENS FALLS    CLOUDY    50  45  83 NE6       29.90R
POUGHKEEPSIE   PTSUNNY   57  50  77 CALM      29.88F
NEWBURGH       CLOUDY    57  54  88 NW7       29.89S
MONTGOMERY     CLOUDY    58  52  80 CALM      29.88S
WHITE PLAINS   PTSUNNY   57  51  80 W6        29.88S FOG
ISLIP          PTSUNNY   57  49  74 SW8       29.89F
NEW YORK CITY  CLOUDY    60  50  69 W7        29.89S
CENTRAL PARK   CLOUDY    58  49  72 CALM      29.91S HAZE
$$

NYZ005>009-017-018-044>046-055-056-022200-
CENTRAL


CITY           SKY/WX    TMP DP  RH WIND       PRES   REMARKS
FULTON         CLOUDY    51  44  77 NW10      29.99R
SYRACUSE       CLOUDY    51  44  77 NW15      29.97R
ROME           CLOUDY    52  49  89 W8        29.93R
ELMIRA         CLOUDY    51  44  77 NE10      29.96R
BINGHAMTON     CLOUDY    48  44  86 NW10      29.93R
MONTICELLO     CLOUDY    54  52  94 W9        29.92R
$$

NYZ026>034-041>043-087-022200-
NORTH


CITY           SKY/WX    TMP DP  RH WIND       PRES   REMARKS
WATERTOWN      CLOUDY    50  45  83 N8        29.96R
FORT DRUM      NOT AVBL
MASSENA        CLOUDY    47  43  86 N9        29.98R
SARANAC LAKE   CLOUDY    45  42  89 NW5       29.89R FOG
PLATTSBURGH    LGT RAIN  46  44  93 NE6       29.92F
$$

NYZ001>004-010>016-019>021-085-022200-
WEST


CITY           SKY/WX    TMP DP  RH WIND       PRES   REMARKS
NIAGARA FALLS  PTSUNNY   51  41  68 VRB3      30.00S
BUFFALO        CLOUDY    48  42  80 VRB5      30.01R
DUNKIRK        CLOUDY    47  43  86 N7        30.00F
JAMESTOWN      CLOUDY    46  39  76 N6        29.97F
WELLSVILLE     CLOUDY    49  44  83 N7        29.96S
ROCHESTER      CLOUDY    49  43  80 N5        30.00S
PENN YAN       CLOUDY    48  43  82 NW7       30.00R
$$

             KEY
       WCI = WIND CHILL INDEX
       VSB = VISIBILITY
       HX  = HEAT INDEX
$$




USA.gov is the U.S. government's official web portal to all federal, state and local government web resources and services.